Tracking 19638 objects as of 20-Apr-2019
HD Live streaming from Space Station
objects crossing your sky now

CZ-4 DEB

Track CZ-4 DEB now!
10-day predictions


NORAD ID: 35331
Int'l Code: 1999-057SK
Perigee: 661.0 km
Apogee: 828.4 km
Inclination: 98.7 °
Period: 99.6 minutes
Semi major axis: 7115 km
RCS: 0.0004 m2 (small)
Launch date: October 14, 1999
Source: People's Republic of China (PRC)
Launch site: Taiyaun Space Center, China (TSC)

Note: This is SATELLITE DEBRIS
aabbcc
Your satellite tracking list
Your tracking list is empty




NASA's NSSDC Master Catalog

Two Line Element Set (TLE):
1 35331U 99057SK  19107.95515794 +.00000576 +00000-0 +16057-3 0  9998
2 35331 098.7038 105.7095 0117653 030.8479 358.5771 14.46365545277749
Source of the keplerian elements: AFSPC